This is the latest recevied weather packets stored in our database for station/object KB3KAV. If no packets are shown the sender has not sent any weather packets the latest 10 day(s).
| Time | Temp. | Humidity | Pressure | Rain* | Wind** | Luminosity | Snow |
|---|---|---|---|---|---|---|---|
| 1787918681 | 16.67° C | 95% | 1046.2 hPa | 0 mm | - | 106 W/m² | - |
| 1787918079 | 16.67° C | 95% | 1046.5 hPa | 0 mm | - | 58 W/m² | - |
| 1787917477 | 16.67° C | 95% | 1046.2 hPa | 0 mm | - | 34 W/m² | - |
| 1787916872 | 16.67° C | 95% | 1046.1 hPa | 0 mm | - | 41 W/m² | - |
| 1787916266 | 16.67° C | 95% | 1045.8 hPa | 0 mm | - | 25 W/m² | - |
| 1787915663 | 16.11° C | 95% | 1045.8 hPa | 0 mm | - | 12 W/m² | - |
| 1787915058 | 16.11° C | 95% | 1045.7 hPa | 0 mm | - | 7 W/m² | - |
| 1787914458 | 16.67° C | 95% | 1045.3 hPa | 0 mm | - | 4 W/m² | - |
| 1787913858 | 16.67° C | 95% | 1045.3 hPa | 0 mm | - | 4 W/m² | - |
| 1787913257 | 16.67° C | 95% | 1045 hPa | 0 mm | - | 0 W/m² | - |
| 1787912656 | 16.67° C | 95% | 1044.9 hPa | 0 mm | - | 0 W/m² | - |
| 1787912055 | 16.67° C | 95% | 1044.6 hPa | 0 mm | - | 0 W/m² | - |
| 1787911450 | 16.67° C | 95% | 1044.7 hPa | 0 mm | - | 0 W/m² | - |
| 1787910846 | 16.11° C | 95% | 1044.7 hPa | 0 mm | - | 0 W/m² | - |
| 1787910243 | 16.67° C | 95% | 1044.8 hPa | 0 mm | - | 0 W/m² | - |
| 1787909640 | 16.67° C | 95% | 1044.5 hPa | 0 mm | - | 0 W/m² | - |
| 1787909036 | 16.67° C | 95% | 1044.5 hPa | 0 mm | - | 0 W/m² | - |
| 1787908436 | 16.67° C | 95% | 1044.2 hPa | 0 mm | - | 0 W/m² | - |
| 1787907836 | 16.67° C | 95% | 1044.1 hPa | 0 mm | - | 0 W/m² | - |
| 1787907232 | 16.67° C | 95% | 1044.6 hPa | 0 mm | - | 0 W/m² | - |
| 1787906630 | 16.67° C | 95% | 1044.4 hPa | 0 mm | - | 0 W/m² | - |
| 1787906031 | 16.67° C | 95% | 1044.1 hPa | 0 mm | - | 0 W/m² | - |
| 1787905428 | 17.22° C | 95% | 1044.2 hPa | 0 mm | - | 0 W/m² | - |
| 1787904824 | 16.67° C | 95% | 1044.4 hPa | 0 mm | - | 0 W/m² | - |
| 1787904219 | 17.22° C | 95% | 1044.5 hPa | 0 mm | - | 0 W/m² | - |
* Rain latest hour (hover to see other rain measurements)
** Current wind speed in m/s (hover to see current wind gust speed)